Location: Jastrzębia Góra
(54.8312°N, 18.3037°E)
Time: 01:41:07
(UTC+01:00)

ISS - Pass Details

Date: 28 January 2019
Orbit: 403 x 411 km, 51.6° (Epoch: 19 February)

Event Time Altitude Azimuth Distance (km) Brightness Sun altitude
Rises 19:08:13 0° 256° (WSW) 2,337 1.2 -24.6°
Reaches altitude 10° 19:10:20 10° 251° (WSW) 1,478 -0.1 -24.9°
Enters shadow 19:12:01 26° 237° (WSW) 855 -1.7 -25.1°
